Location: Unspecified
(0.0000°N, 0.0000°E)
Time: 13:27:13
(UTC+00:00)

Vanguard 3 - All Passes

Search period start: 01 August 2021 00:00
Search period end: 11 August 2021 00:00
Orbit: 508 x 3261 km, 33.4° (Epoch: 01 August)

Date Brightness Start Highest point End Pass type
(mag) Time Alt. Az. Time Alt. Az. Time Alt. Az.
01 Aug - 02:14:30 10° WNW 02:29:41 78° SW 02:37:59 10° SE visible
01 Aug - 04:36:25 10° WSW 04:41:52 16° SW 04:46:00 10° S visible
01 Aug - 13:32:19 10° SW 13:38:28 71° SE 13:49:45 10° ENE daylight
01 Aug - 15:44:24 10° W 15:52:46 38° NNW 16:06:29 10° NE daylight
01 Aug - 18:02:00 10° NW 18:11:31 19° N 18:23:26 10° NNE daylight
01 Aug - 20:22:50 10° NNW 20:34:25 18° N 20:46:05 10° NE visible
01 Aug - 22:39:59 10° NNW 22:56:17 31° NNE 23:08:47 10° E visible
02 Aug - 00:56:30 10° NW 01:14:00 70° NNE 01:24:11 10° ESE visible
02 Aug - 03:15:54 10° WNW 03:27:36 37° SW 03:34:38 10° SSE visible
02 Aug - 12:19:49 10° SSW 12:24:31 31° SE 12:31:51 10° ENE daylight
02 Aug - 14:29:55 10° WSW 14:36:52 55° NNW 14:49:23 10° NE daylight
02 Aug - 16:44:49 10° WNW 16:53:24 23° NNW 17:05:29 10° NNE daylight
02 Aug - 19:04:55 10° NW 19:14:32 17° N 19:25:21 10° NE visible
02 Aug - 21:23:01 10° NNW 21:37:32 24° NNE 21:50:33 10° ENE visible
02 Aug - 23:39:02 10° NW 23:57:13 49° NNE 00:09:18 10° E visible
03 Aug - 01:56:46 10° WNW 02:12:48 68° SW 02:21:49 10° SE visible
03 Aug - 04:20:13 10° WSW 04:25:23 15° SW 04:29:25 10° S visible
03 Aug - 11:10:11 10° SE 11:10:49 10° SE 11:11:28 10° SE daylight
03 Aug - 13:16:20 10° SW 13:22:01 87° SE 13:32:21 10° NE daylight
03 Aug - 15:28:57 10° W 15:36:27 30° NNW 15:48:14 10° NNE daylight
03 Aug - 17:47:02 10° NW 17:55:17 17° N 18:05:27 10° NNE daylight
03 Aug - 20:06:12 10° NNW 20:18:02 19° NNE 20:30:12 10° NE visible
03 Aug - 22:22:04 10° NW 22:39:26 36° NNE 22:53:02 10° E visible
04 Aug - 00:38:31 10° NW 00:57:02 80° NE 01:08:03 10° ESE visible
04 Aug - 02:58:45 10° W 03:10:48 33° SW 03:18:18 10° SSE visible
04 Aug - 12:03:37 10° SSW 12:08:05 38° SE 12:15:08 10° ENE daylight
04 Aug - 14:14:15 10° W 14:20:34 43° NNW 14:31:29 10° NE daylight
04 Aug - 16:29:51 10° NW 16:37:11 19° NNW 16:47:05 10° NNE daylight
04 Aug - 18:49:19 10° NNW 18:58:19 16° N 19:08:30 10° NE visible
04 Aug - 21:05:33 10° NNW 21:20:48 27° NNE 21:34:50 10° ENE visible
04 Aug - 23:21:01 10° NW 23:40:10 57° NNE 23:53:15 10° ESE visible
05 Aug - 01:39:06 10° WNW 01:55:47 60° SW 02:05:33 10° SE visible
05 Aug - 04:04:06 10° WSW 04:08:53 13° SW 04:12:46 10° SSW visible
05 Aug - 10:52:35 10° SSE 10:54:29 12° SE 10:56:40 10° ESE daylight
05 Aug - 13:00:28 10° WSW 13:05:42 74° NNW 13:14:57 10° NE daylight
05 Aug - 15:13:46 10° WNW 15:20:16 24° NNW 15:29:57 10° NNE daylight
05 Aug - 17:32:16 10° NNW 17:39:09 15° N 17:47:26 10° NNE daylight
05 Aug - 19:49:25 10° NNW 20:01:32 20° NNE 20:14:19 10° ENE visible
05 Aug - 22:04:14 10° NW 22:22:24 41° NNE 22:37:04 10° E visible
06 Aug - 00:20:37 10° NW 00:39:53 90° NE 00:51:49 10° SE visible
06 Aug - 02:41:41 10° W 02:53:58 30° SW 03:01:54 10° SSE visible
06 Aug - 11:47:29 10° SW 11:51:44 47° SE 11:58:25 10° ENE daylight
06 Aug - 13:58:46 10° W 14:04:24 33° NNW 14:13:34 10° NE daylight
06 Aug - 16:15:16 10° NW 16:21:05 15° N 16:28:32 10° NNE daylight
06 Aug - 18:33:34 10° NNW 18:42:06 15° N 18:51:50 10° NE visible
06 Aug - 20:48:07 10° NNW 21:03:54 30° NNE 21:18:56 10° E visible
06 Aug - 23:03:08 10° NW 23:22:56 65° NE 23:37:02 10° ESE visible
07 Aug - 01:21:33 10° WNW 01:38:41 54° SW 01:49:10 10° SE visible
07 Aug - 03:48:06 10° WSW 03:52:25 12° SW 03:56:03 10° SSW visible
07 Aug - 10:35:44 10° S 10:38:12 15° SE 10:41:07 10° ESE daylight
07 Aug - 12:44:42 10° WSW 12:49:30 55° NNW 12:57:35 10° NE daylight
07 Aug - 14:58:53 10° NW 15:04:12 18° NNW 15:11:31 10° NNE daylight
07 Aug - 17:17:43 10° NNW 17:23:06 13° N 17:29:22 10° NNE daylight
07 Aug - 19:32:35 10° NNW 19:44:57 21° NNE 19:58:22 10° ENE visible
07 Aug - 21:46:32 10° NW 22:05:11 46° NNE 22:20:53 10° E visible
08 Aug - 00:02:51 10° WNW 00:22:34 82° SW 00:35:26 10° SE visible
08 Aug - 02:24:42 10° W 02:37:06 28° SW 02:45:27 10° SSE night (unlit)
08 Aug - 11:31:26 10° SW 11:35:29 63° SE 11:41:42 10° ENE daylight
08 Aug - 13:43:31 10° WNW 13:48:22 24° NNW 13:55:36 10° NNE daylight
08 Aug - 16:01:21 10° NNW 16:05:06 12° N 16:09:30 10° NNE daylight
08 Aug - 18:17:38 10° NNW 18:25:50 15° NNE 18:35:20 10° NE visible
08 Aug - 20:30:45 10° NNW 20:46:52 33° NNE 21:02:51 10° E visible
08 Aug - 22:45:22 10° NW 23:05:32 72° NE 23:20:38 10° ESE visible
09 Aug - 01:04:05 10° WNW 01:21:28 48° SW 01:32:41 10° SSE visible
09 Aug - 03:32:14 10° SW 03:36:00 12° SW 03:39:16 10° SSW visible
09 Aug - 10:19:05 10° S 10:21:57 20° SE 10:25:21 10° E daylight
09 Aug - 12:29:05 10° W 12:33:25 39° NNW 12:40:13 10° NE daylight
09 Aug - 14:44:37 10° NW 14:48:15 13° NNW 14:52:43 10° NNE daylight
09 Aug - 17:03:28 10° N 17:07:06 11° N 17:11:09 10° NNE daylight
09 Aug - 19:15:43 10° NNW 19:28:14 23° NNE 19:42:18 10° ENE visible
09 Aug - 21:28:57 10° NW 21:47:48 52° NNE 22:04:31 10° ESE visible
09 Aug - 23:45:12 10° WNW 00:05:08 74° SW 00:18:54 10° SE visible
10 Aug - 02:07:49 10° W 02:20:14 25° SW 02:28:56 10° SSE night (unlit)
10 Aug - 11:15:27 10° SW 11:19:19 89° SSE 11:24:58 10° NE daylight
10 Aug - 13:28:38 10° WNW 13:32:25 17° NNW 13:37:29 10° NNE daylight
10 Aug - 18:01:30 10° NNW 18:09:32 15° NNE 18:18:59 10° NE daylight
10 Aug - 20:13:27 10° NNW 20:29:41 37° NNE 20:46:32 10° E visible
10 Aug - 22:27:45 10° NW 22:48:00 80° NE 23:04:05 10° ESE visible
